TimeEDT,TemperatureF,Dew PointF,Humidity,Sea Level PressureIn,VisibilityMPH,Wind Direction,Wind SpeedMPH,Gust SpeedMPH,PrecipitationIn,Events,Conditions,WindDirDegrees,DateUTC
12:53 AM,59.0,55.9,90,30.23,10.0,Calm,Calm,-,N/A,,Clear,0,2013-06-21 04:53:00
1:53 AM,57.9,55.0,90,30.24,9.0,Calm,Calm,-,N/A,,Clear,0,2013-06-21 05:53:00
2:53 AM,57.0,54.0,89,30.24,9.0,Calm,Calm,-,N/A,,Clear,0,2013-06-21 06:53:00
3:53 AM,55.9,54.0,93,30.24,7.0,Calm,Calm,-,N/A,,Clear,0,2013-06-21 07:53:00
4:53 AM,55.0,53.1,93,30.25,7.0,Calm,Calm,-,N/A,,Partly Cloudy,0,2013-06-21 08:53:00
5:53 AM,55.0,53.1,93,30.25,6.0,Calm,Calm,-,0.01,,Clear,0,2013-06-21 09:53:00
6:53 AM,55.9,53.1,90,30.25,7.0,Calm,Calm,-,N/A,,Clear,0,2013-06-21 10:53:00
7:53 AM,60.1,55.9,86,30.26,10.0,Calm,Calm,-,N/A,,Clear,0,2013-06-21 11:53:00
8:53 AM,66.9,57.0,70,30.25,10.0,SSE,3.5,-,N/A,,Clear,150,2013-06-21 12:53:00
9:53 AM,72.0,57.0,59,30.27,10.0,Calm,Calm,-,N/A,,Clear,0,2013-06-21 13:53:00
10:53 AM,78.1,57.0,48,30.27,10.0,Calm,Calm,-,N/A,,Clear,0,2013-06-21 14:53:00
11:53 AM,81.0,55.0,41,30.27,10.0,Variable,3.5,-,N/A,,Clear,0,2013-06-21 15:53:00
12:53 PM,80.1,55.9,43,30.25,10.0,SSW,4.6,-,N/A,,Clear,200,2013-06-21 16:53:00
1:53 PM,82.9,54.0,37,30.25,10.0,Calm,Calm,-,N/A,,Clear,0,2013-06-21 17:53:00
2:53 PM,84.0,55.9,38,30.22,10.0,Calm,Calm,-,N/A,,Clear,0,2013-06-21 18:53:00
3:53 PM,82.9,55.9,39,30.21,10.0,Calm,Calm,-,N/A,,Clear,0,2013-06-21 19:53:00
4:53 PM,84.0,55.0,37,30.19,10.0,Calm,Calm,-,N/A,,Clear,0,2013-06-21 20:53:00
5:53 PM,84.0,57.0,40,30.18,10.0,SE,4.6,-,N/A,,Clear,140,2013-06-21 21:53:00
6:53 PM,82.9,57.9,42,30.18,10.0,Calm,Calm,-,N/A,,Clear,0,2013-06-21 22:53:00
7:53 PM,80.1,63.0,56,30.17,10.0,Calm,Calm,-,N/A,,Clear,0,2013-06-21 23:53:00
8:53 PM,73.9,64.9,73,30.17,10.0,Calm,Calm,-,N/A,,Clear,0,2013-06-22 00:53:00
9:53 PM,70.0,64.0,81,30.17,10.0,Calm,Calm,-,N/A,,Clear,0,2013-06-22 01:53:00
10:53 PM,66.9,63.0,87,30.17,9.0,Calm,Calm,-,N/A,,Clear,0,2013-06-22 02:53:00
11:53 PM,64.9,61.0,87,30.17,6.0,Calm,Calm,-,N/A,,Clear,0,2013-06-22 03:53:00